sat.trackr.live / text

‹ back to catalog

STARLINK-30526

NORAD 58006 · 2023-153R

PAYLOAD ACTIVE UNKNOWN

§ Identity

Operator
Country
US
Launch date
2023-10-05
Launch site
AFETR
Launch vehicle
Mass (kg)
RCS (m²)

Purposes: comms

External: N2YO · Heavens-Above · Gunter

§ Orbital elements

Epoch: 2026-05-24T22:48:35.887104Z

Period
94.14 min
Inclination
43.0043°
Eccentricity
0.0003993
Mean motion
15.29610037 rev/d
Perigee alt
474.2 km
Apogee alt
479.7 km
Semi-major
6,855.1 km
B*
8.4491e-4
RAAN
330.8401°
Arg perigee
285.4563°
Mean anomaly
74.5849°
Rev number
14,685

§ Raw data

STARLINK-305261 58006U 23153R   26144.95041536  .00024563  00000+0  84491-3 0  99912 58006  43.0043 330.8401 0003993 285.4563  74.5849 15.29610037146856

JSON: /api/v1/satellites/58006 · /tle

For live sub-satellite position, see the globe view (requires WebGL).

§ Visibility from observer

Set your observer location to see the next 7 days of passes ≥ 10°. The values pass through the URL so the page stays shareable.

No JS? Fill the form by hand. The geolocation button needs JavaScript.